Regional Weather Roundup
Issued by NWS

Home | Current Version | Previous Version | Text Only | Print | Product List | Glossary Off
Versions: 1 2 3 4 5 6 7 8 9 10 11 12 13 14 15 16 17 18 19 20 21 22 23 24 25 26 27 28 29 30 31 32 33 34 35 36 37 38 39 40 41 42 43 44 45 46 47 48 49 50

971
ASUS43 KMPX 061110
RWRMN
WEATHER ROUNDUP FOR MINNESOTA
NATIONAL WEATHER SERVICE TWIN CITIES/CHANHASSEN MN
500 AM CST FRI DEC 06 2019


NOTE: "FAIR" INDICATES FEW OR NO CLOUDS BELOW 12,000 FEET WITH NO
SIGNIFICANT WEATHER AND/OR OBSTRUCTIONS TO VISIBILITY. N/A MEANS
CURRENT SKY AND/OR WEATHER CONDITIONS ARE NOT AVAILABLE.

MNZ060>063-068>070-061200-
   Twin Cities Metro

CITY           SKY/WX    TMP DP  RH WIND       PRES   REMARKS
TWIN CITIES    FAIR      22  15  75 NW8       30.29R WCI  12
ST PAUL        FAIR      23  16  74 NW13      30.30S WCI  11
CRYSTAL        FAIR      20  13  74 NW9       30.29R WCI   9
BLAINE         FAIR      21  16  79 W9        30.29R WCI  11
LAKEVILLE      FAIR      21  19  93 NW9       30.28S WCI  11
EDEN PRAIRIE   FAIR      21  14  74 NW9       30.29R WCI  11
SOUTH ST PAUL  FAIR      24  18  76 W8        30.29R WCI  16
LAKE ELMO      FAIR      23  18  80 N3        30.28S
$$
MNZ001>005-007-008-013>017-022>024-027-028-061200-
   Northwest Minnesota

CITY           SKY/WX    TMP DP  RH WIND       PRES   REMARKS
BEMIDJI        FLURRIES  11   8  85 NW8       30.28S WCI   0
HALLOCK        CLOUDY    14  10  85 S6        30.31R WCI   5
ROSEAU         FAIR       5   1  85 CALM      30.28S
WARROAD        FAIR       5   1  85 CALM      30.28S
THIEF RVR FALL CLEAR      7   4  87 CALM      30.31S
CROOKSTON      PTCLDY     7   7 100 CALM      30.33S
FOSSTON        MOCLDY     7   3  85 CALM      30.29F
DETROIT LAKES  CLOUDY    18  14  86 CALM      30.30F
MOORHEAD       MOCLDY    16  10  79 CALM      30.34F
PARK RAPIDS    CLOUDY    10   6  84 CALM      30.28R
MAHNOMEN       CLOUDY    13  10  87 CALM      30.30S
$$
MNZ006-009>011-018-025>026-061200-
   North Central Minnesota

CITY           SKY/WX    TMP DP  RH WIND       PRES   REMARKS
BAUDETTE       CLOUDY    11   6  81 W5        30.27F WCI   3
FLAG ISLAND      N/A      7   3  85 W3        30.27S
INTL FALLS     CLOUDY     9   4  80 NW7       30.26S WCI  -2
WASKISH        FLURRIES  12   9  85 NW7       30.27F WCI   2
BIG FORK       CLOUDY    10   7  85 NW3       30.31S
LONGVILLE      FLURRIES  12   9  85 W9        30.28R WCI   0
GRAND RAPIDS   FLURRIES  15  10  80 NW14      30.28R WCI   0
CRANE LAKE     FLURRIES  10   7  85 NW5       30.28R WCI   2
ORR            FLURRIES  10   3  72 NW6       30.23R WCI   1
COOK           FLURRIES  10   7  85 NW3       30.24R
WALKER         CLOUDY    10   7  85 NW8       30.29R WCI  -1
$$
MNZ012-019>021-037-061200-
   Northeast Minnesota

CITY           SKY/WX    TMP DP  RH WIND       PRES   REMARKS
DULUTH         FLURRIES  17  10  74 NW13G21   30.20R WCI   4
ELY            FLURRIES  12   7  79 NW8       30.20R WCI   1
HIBBING        LGT SNOW  12   7  80 NW10      30.24R VSB 1   WCI  -1
EVELETH        FLURRIES  12   7  79 NW10G17   30.25R WCI  -1
DULUTH HARBOR  CLOUDY   N/A N/A N/A NW3       30.28R
TWO HARBORS    CLOUDY    18   7  62 W8        30.20R WCI   7
SILVER BAY     MOCLDY    18   9  68 NW6       30.19R WCI   9
GRAND MARAIS     N/A     19  10  68 VRB3      30.19R
G MARAIS ARPRT FLURRIES  12   5  73 NW12G21   30.08R WCI  -2
$$
MNZ029>031-032-039>041-046>048-054>057-064-061200-
   West Central Minnesota

CITY           SKY/WX    TMP DP  RH WIND       PRES   REMARKS
FERGUS FALLS   CLOUDY    16  12  86 NW5       30.35S WCI   9
MORRIS         CLEAR      9   7  92 W5        30.29R WCI   0
ALEXANDRIA     CLOUDY    17  12  80 N8        30.30S WCI   7
ELBOW LAKE     CLOUDY    16  14  90 NW3       30.33S
WADENA         FLURRIES  16  10  79 NW9       30.30R WCI   4
GLENWOOD       CLOUDY    18  14  86 N5        30.31R WCI  11
APPLETON       CLEAR     16  12  86 W6        30.36R WCI   7
BENSON         PTCLDY     9   7  92 CALM      30.35S
ORTONVILLE     PTCLDY    16  10  79 CALM      30.35S
MADISON        CLEAR     18  14  86 W6        30.36S WCI   9
WILLMAR        FAIR      10   7  85 W3        30.35S
$$
MNZ033>034-036-042>043-049>051-058-059-061200-
   Central Minnesota

CITY           SKY/WX    TMP DP  RH WIND       PRES   REMARKS
ST CLOUD       FAIR      11   7  84 NW10      30.30R WCI  -3
SAUK CENTRE      N/A     16  11  83 NW10      30.31S WCI   3
PAYNESVILLE    FAIR      10  10  98 NW3       30.32S
AITKIN         CLOUDY    12   9  85 NW5       30.26S WCI   4
PINE RIVER     CLOUDY    10   7  85 NW3       30.31R
BRAINERD       CLOUDY    16   9  74 NW5       30.29R WCI   9
STAPLES        FLURRIES   9   5  85 NW7       30.30R WCI  -3
LONG PRAIRIE   CLOUDY    14  10  85 NW7       30.30S WCI   4
LITTLE FALLS   FAIR      12   9  85 W3        30.31R
LITCHFIELD       N/A     14  12  92 NW6       30.32S WCI   5
BUFFALO        FAIR      16  12  86 MISG      30.32R
MAPLE LAKE       N/A     16  12  86 NW8       30.32R WCI   5
HUTCHINSON     CLEAR     15  11  84 NW8       30.33R WCI   4
$$
MNZ037-044-045-052-053-061200-
   East Central Minnesota

CITY           SKY/WX    TMP DP  RH WIND       PRES   REMARKS
PRINCETON      FAIR      14  10  85 W5        30.29R WCI   6
MORA           FAIR      18  12  79 NW5       30.29R WCI  11
CAMBRIDGE      FAIR      18   9  68 NW7       30.29R WCI   8
RUSH CITY      FAIR      17  13  82 NW6       30.28R WCI   9
MOOSE LAKE     CLOUDY    19  12  73 NW5       30.25R WCI  13
HINCKLEY       CLOUDY    18  14  86 NW3       30.27R
CLOQUET        CLOUDY    18  10  73 W6        30.22S WCI   9
MCGREGOR       CLOUDY    19  12  73 NW9       30.27R WCI   9
$$
MNZ071>073-080-081-089-090-097-098-061200-
   Southwest Minnesota

CITY           SKY/WX    TMP DP  RH WIND       PRES   REMARKS
MONTEVIDEO     CLEAR     16  10  79 NW3       30.36R
GRANITE FALLS  CLEAR     13  11  89 W6        30.37S WCI   4
CANBY          CLEAR     16  12  86 W5        30.36F WCI   9
MARSHALL       CLEAR     18  14  84 NW9       30.35F WCI   7
REDWOOD FALLS  CLEAR     16  12  84 NW8       30.34F WCI   5
OLIVIA         CLEAR     10   9  92 NW6       30.33S WCI   1
PIPESTONE      MOCLDY    18  16  93 N8        30.32S WCI   7
WINDOM         CLOUDY    18  16  93 NW15      30.31S WCI   3
WORTHINGTON    CLOUDY    17  15  92 N14       30.33R WCI   3
JACKSON        CLOUDY    16  14  93 N9G17     30.32R WCI   4
TRACY          PTCLDY    19  16  86 NW8       30.34S WCI   9
SLAYTON        CLOUDY    17  15  90 N17       30.32S WCI   2
$$
MNZ065>067-074>077-082>085-091>093-061200-
   South Central Minnesota

CITY           SKY/WX    TMP DP  RH WIND       PRES   REMARKS
MANKATO        FAIR      16  14  92 NW12      30.33R WCI   3
NEW ULM        CLEAR     14   9  79 NW9       30.34S WCI   2
FAIRMONT       PTCLDY    16  13  88 NW21      30.32S WCI  -1
GLENCOE        FAIR      16  12  86 NW7       30.32R WCI   6
FARIBAULT      FAIR      21  18  86 W8        30.29R WCI  12
OWATONNA       FAIR      21  19  93 NW10      30.27R WCI  10
WASECA         CLOUDY    19  16  86 NW10      30.31R WCI   8
ALBERT LEA     CLOUDY    21  21 100 NW8       30.28R WCI  12
$$
MNZ078>079-086>088-094>096-061200-
   Southeast Minnesota

CITY           SKY/WX    TMP DP  RH WIND       PRES   REMARKS
ROCHESTER      CLOUDY    28  20  71 NW15      30.24R WCI  16
RED WING       FAIR      27  19  74 N6        30.27R WCI  20
STANTON        FAIR      24  19  81 NW10      30.27R WCI  13
DODGE CENTER   CLOUDY    27  21  80 NW14      30.25R WCI  15
WINONA         MOCLDY    32  25  74 NW12G17   30.24R WCI  23
AUSTIN         MOCLDY    28  27  93 NW12      30.25R WCI  18
PRESTON        MOCLDY    28  21  76 N14       30.22R WCI  17
$$
ABBREVIATIONS USED IN REMARKS
   TC - TEMPERATURES IN CELSIUS
  WCI - WIND CHILL INDEX
   HX - HEAT INDEX
  VSB - VISIBILITY
$$




USA.gov is the U.S. government's official web portal to all federal, state and local government web resources and services.